Location: Invercargill
(46.4000°S, 168.3500°E)
Time: 06:06:32
(UTC+13:00)

Cosmos 405 Rocket - Visible Passes

Search period start: 27 September 2021 00:00
Search period end: 07 October 2021 00:00
Orbit: 487 x 553 km, 81.3° (Epoch: 26 September)

Date Brightness Start Highest point End Pass type
(mag) Time Alt. Az. Time Alt. Az. Time Alt. Az.
03 Oct 6.1 00:11:20 10° S 00:11:20 10° S 00:11:20 10° S visible
03 Oct 5.9 23:57:31 11° S 23:57:31 11° S 23:57:45 10° S visible
04 Oct 5.7 23:43:42 13° S 23:43:42 13° S 23:44:11 10° S visible
05 Oct 5.5 23:29:50 15° SSE 23:29:50 15° SSE 23:30:35 10° SSE visible
06 Oct 5.3 23:15:56 17° SSE 23:15:56 17° SSE 23:16:59 10° SSE visible
